Home > Weather > Compton > Past weeks

Flag for U.S.A. Weather for the Past 2 Weeks in Compton, California, U.S.A.

Now
61 °F

Clear.


Feels Like: 61 °F
Forecast: 56 / 87 °F
Wind: No wind

Location: Hawthorne Municipal Airport

Current Time: Feb 9, 2016 at 2:01:02 AM

Latest Report: Feb 9, 2016 at 12:53 AM


Visibility: 10 mi

Pressure: 30.12 "Hg

Humidity: 36%

Dew point: 34 °F

Location of ComptonLocation

Historic Weather in Compton — Graph

°F

Compton Temperature Yesterday

Maximum temperature yesterday: 88 °F (at 12:53 PM)
Minimum temperature yesterday: 54 °F (at 3:53 AM)
Average temperature yesterday: 69 °F

High & Low Weather Summary for the Past Weeks

 TemperatureHumidityPressure
High88 °F (Feb 8, 12:53 PM)93% (Jan 31, 8:58 AM)30.37 "Hg (Jan 31, 8:58 AM)
Low43 °F (Feb 2, 5:53 AM)7% (Feb 7, 12:53 PM)29.62 "Hg (Jan 31, 3:53 PM)
Average59 °F45%30.13 "Hg
* Reported Jan 25 12:53 AM — Feb 9 12:53 AM, Compton, Weather by CustomWeather, © 2016

Note: Actual official high and low records may vary slightly from our data, if they occured in-between our weather recording intervals... More about our weather records

Advertising

Compton Weather History for the Previous 24 Hours

 ConditionsComfort  
Time TempWeatherWind HumidityBarometerVisibility
12:53 AM
Tue, Feb 9
61 °FClear.No wind36%30.12 "Hg10 mi
11:53 PM
Mon, Feb 8
62 °FClear.No wind37%30.13 "Hg10 mi
10:53 PM65 °FClear.No wind31%30.12 "Hg10 mi
9:53 PM67 °FClear.No wind30%30.12 "Hg10 mi
8:53 PM68 °FClear.No wind27%30.11 "Hg10 mi
7:53 PM71 °FClear.No wind22%30.10 "Hg10 mi
6:53 PM74 °FClear.No wind17%30.09 "Hg10 mi
5:53 PM79 °FClear.3 mph12%30.08 "Hg10 mi
4:53 PM82 °FSunny.7 mph11%30.07 "Hg10 mi
3:53 PM85 °FSunny.8 mph12%30.06 "Hg10 mi
2:53 PM88 °FSunny.9 mph7%30.06 "Hg10 mi
1:53 PM88 °FSunny.8 mph7%30.07 "Hg10 mi
12:53 PM88 °FSunny.5 mph7%30.09 "Hg10 mi
11:53 AM84 °FSunny.3 mph9%30.12 "Hg2 mi
10:53 AM81 °FSunny.No wind12%30.15 "Hg10 mi
9:53 AM74 °FSunny.3 mph21%30.14 "Hg10 mi
8:53 AM66 °FSunny.No wind29%30.14 "Hg10 mi
7:53 AM59 °FSunny.No wind36%30.13 "Hg10 mi
6:53 AM55 °FSunny.No wind42%30.12 "Hg10 mi
5:53 AM54 °FClear.No wind49%30.11 "Hg10 mi
4:53 AM54 °FClear.No wind49%30.10 "Hg10 mi
3:53 AM54 °FClear.No wind45%30.09 "Hg10 mi
2:53 AM55 °FClear.No wind44%30.11 "Hg10 mi
Weather by CustomWeather, © 2016

See weather overviewHow to use our weather pages